contact:dominique.lefevre@mio.osupytheas.fr, maurice.libes@osupytheas.fr, didier.mallarino@osupytheas.fr
Project:EMSO http://www.emso-fr.org/EMSO-France
Depth: 2436.0 m
Title:EMSO Ligure Ouest : Data MII capteur CSTAR
DateTime,Latitude,Longitude,Instrument_Serial,Reference_Counts,Signal_Counts,Corrected_Signal_raw_counts,Calculated_Beam_c_inverse_meters,Internal_thermistor_counts
DateTime,Latitude,Longitude,Instrument_Serial,Reference_Counts,Signal_Counts,Corrected_Signal_raw_counts,Calculated_Beam_c_inverse_meters,Internal_thermistor_counts
2023-04-08T00:01:12,42.805,6.029,CST-1368DR,4329,4711,11557,01.204,551
2023-04-08T00:04:14,42.805,6.029,CST-1368DR,4329,4713,11561,01.203,551
2023-04-08T00:07:15,42.805,6.029,CST-1368DR,4329,4712,11559,01.203,551
2023-04-08T00:10:17,42.805,6.029,CST-1368DR,4329,4712,11559,01.203,551
2023-04-08T00:13:18,42.805,6.029,CST-1368DR,4329,4713,11561,01.203,551
2023-04-08T00:16:20,42.805,6.029,CST-1368DR,4329,4710,11554,01.205,551
2023-04-08T00:19:22,42.805,6.029,CST-1368DR,4329,4715,11565,01.201,552
2023-04-08T00:22:23,42.805,6.029,CST-1368DR,4329,4714,11564,01.202,551
2023-04-08T00:25:25,42.805,6.029,CST-1368DR,4329,4716,11568,01.200,551
2023-04-08T00:28:26,42.805,6.029,CST-1368DR,4329,4709,11552,01.206,551
2023-04-08T00:31:28,42.805,6.029,CST-1368DR,4329,4715,11566,01.201,551
2023-04-08T00:34:30,42.805,6.029,CST-1368DR,4329,4715,11565,01.201,551
2023-04-08T00:37:31,42.805,6.029,CST-1368DR,4329,4713,11562,01.202,551
2023-04-08T00:40:33,42.805,6.029,CST-1368DR,4329,4712,11558,01.204,551
2023-04-08T00:43:34,42.805,6.029,CST-1368DR,4329,4712,11559,01.203,551
2023-04-08T00:46:36,42.805,6.029,CST-1368DR,4329,4715,11565,01.201,551
2023-04-08T00:49:37,42.805,6.029,CST-1368DR,4329,4714,11564,01.202,551
2023-04-08T00:52:39,42.805,6.029,CST-1368DR,4329,4714,11564,01.202,551
2023-04-08T00:55:41,42.805,6.029,CST-1368DR,4329,4714,11563,01.202,551
2023-04-08T00:58:42,42.805,6.029,CST-1368DR,4329,4715,11565,01.201,551
2023-04-08T01:01:44,42.805,6.029,CST-1368DR,4329,4714,11564,01.202,551
2023-04-08T01:04:45,42.805,6.029,CST-1368DR,4329,4712,11558,01.204,551
2023-04-08T01:07:47,42.805,6.029,CST-1368DR,4329,4714,11563,01.202,551
2023-04-08T01:10:48,42.805,6.029,CST-1368DR,4329,4713,11561,01.203,551
2023-04-08T01:13:50,42.805,6.029,CST-1368DR,4329,4710,11555,01.205,551
2023-04-08T01:16:52,42.805,6.029,CST-1368DR,4329,4712,11559,01.203,551
2023-04-08T01:19:53,42.805,6.029,CST-1368DR,4329,4711,11556,01.204,551
2023-04-08T01:22:55,42.805,6.029,CST-1368DR,4329,4712,11560,01.203,551
2023-04-08T01:25:56,42.805,6.029,CST-1368DR,4329,4712,11559,01.203,551
2023-04-08T01:28:58,42.805,6.029,CST-1368DR,4329,4712,11560,01.203,551
2023-04-08T01:32:00,42.805,6.029,CST-1368DR,4329,4712,11559,01.203,551
2023-04-08T01:35:01,42.805,6.029,CST-1368DR,4329,4710,11555,01.205,551
2023-04-08T01:38:03,42.805,6.029,CST-1368DR,4329,4712,11560,01.203,551
2023-04-08T01:41:04,42.805,6.029,CST-1368DR,4329,4712,11558,01.204,551
2023-04-08T01:44:06,42.805,6.029,CST-1368DR,4329,4712,11559,01.203,551
2023-04-08T01:47:07,42.805,6.029,CST-1368DR,4329,4710,11554,01.205,551
2023-04-08T01:50:09,42.805,6.029,CST-1368DR,4329,4712,11559,01.203,551
2023-04-08T01:53:11,42.805,6.029,CST-1368DR,4329,4712,11559,01.203,551
2023-04-08T01:56:12,42.805,6.029,CST-1368DR,4329,4709,11551,01.206,551
2023-04-08T01:59:14,42.805,6.029,CST-1368DR,4329,4713,11562,01.202,551
2023-04-08T02:02:15,42.805,6.029,CST-1368DR,4329,4713,11562,01.202,551
2023-04-08T02:05:17,42.805,6.029,CST-1368DR,4329,4710,11554,01.205,551
2023-04-08T02:08:19,42.805,6.029,CST-1368DR,4329,4709,11551,01.206,551
2023-04-08T02:11:20,42.805,6.029,CST-1368DR,4329,4711,11557,01.204,551
2023-04-08T02:14:22,42.805,6.029,CST-1368DR,4329,4713,11562,01.202,551
2023-04-08T02:17:23,42.805,6.029,CST-1368DR,4329,4708,11550,01.206,551
2023-04-08T02:20:25,42.805,6.029,CST-1368DR,4329,4710,11554,01.205,551
2023-04-08T02:23:26,42.805,6.029,CST-1368DR,4329,4709,11552,01.206,551
2023-04-08T02:26:28,42.805,6.029,CST-1368DR,4329,4712,11559,01.203,551
2023-04-08T02:29:30,42.805,6.029,CST-1368DR,4329,4710,11555,01.205,551
2023-04-08T02:32:31,42.805,6.029,CST-1368DR,4329,4709,11553,01.205,552
2023-04-08T02:35:33,42.805,6.029,CST-1368DR,4329,4710,11554,01.205,551
2023-04-08T02:38:34,42.805,6.029,CST-1368DR,4329,4711,11557,01.204,551
2023-04-08T02:41:36,42.805,6.029,CST-1368DR,4329,4711,11557,01.204,551
2023-04-08T02:44:37,42.805,6.029,CST-1368DR,4329,4706,11544,01.209,551
2023-04-08T02:47:39,42.805,6.029,CST-1368DR,4329,4701,11532,01.213,551
2023-04-08T02:50:41,42.805,6.029,CST-1368DR,4329,4710,11554,01.205,551
2023-04-08T02:53:42,42.805,6.029,CST-1368DR,4329,4709,11553,01.205,551
2023-04-08T02:56:44,42.805,6.029,CST-1368DR,4329,4709,11551,01.206,551
2023-04-08T02:59:45,42.805,6.029,CST-1368DR,4329,4710,11553,01.205,551
2023-04-08T03:02:47,42.805,6.029,CST-1368DR,4329,4710,11553,01.205,551
2023-04-08T03:05:49,42.805,6.029,CST-1368DR,4329,4707,11548,01.207,551
2023-04-08T03:08:50,42.805,6.029,CST-1368DR,4329,4710,11553,01.205,551
2023-04-08T03:11:52,42.805,6.029,CST-1368DR,4329,4713,11560,01.203,551
2023-04-08T03:14:53,42.805,6.029,CST-1368DR,4329,4712,11559,01.203,551
2023-04-08T03:17:55,42.805,6.029,CST-1368DR,4329,4709,11553,01.205,551
2023-04-08T03:20:56,42.805,6.029,CST-1368DR,4328,4706,11547,01.207,551
2023-04-08T03:23:58,42.805,6.029,CST-1368DR,4329,4713,11560,01.203,552
2023-04-08T03:27:00,42.805,6.029,CST-1368DR,4329,4713,11562,01.202,551
2023-04-08T03:30:01,42.805,6.029,CST-1368DR,4328,4709,11555,01.205,551
2023-04-08T03:33:03,42.805,6.029,CST-1368DR,4328,4711,11558,01.204,551
2023-04-08T03:36:04,42.805,6.029,CST-1368DR,4328,4709,11554,01.205,551
2023-04-08T03:39:06,42.805,6.029,CST-1368DR,4328,4711,11559,01.203,551
2023-04-08T03:42:07,42.805,6.029,CST-1368DR,4328,4710,11558,01.204,551
2023-04-08T03:45:09,42.805,6.029,CST-1368DR,4329,4711,11557,01.204,551
2023-04-08T03:48:11,42.805,6.029,CST-1368DR,4329,4710,11554,01.205,551
2023-04-08T03:51:12,42.805,6.029,CST-1368DR,4329,4710,11554,01.205,551
2023-04-08T03:54:14,42.805,6.029,CST-1368DR,4328,4709,11554,01.205,551
2023-04-08T03:57:15,42.805,6.029,CST-1368DR,4328,4709,11554,01.205,551
2023-04-08T04:00:17,42.805,6.029,CST-1368DR,4328,4710,11558,01.204,551
2023-04-08T04:03:18,42.805,6.029,CST-1368DR,4328,4711,11558,01.204,551
2023-04-08T04:06:20,42.805,6.029,CST-1368DR,4328,4712,11561,01.203,551
2023-04-08T04:09:22,42.805,6.029,CST-1368DR,4328,4711,11559,01.203,551
2023-04-08T04:12:23,42.805,6.029,CST-1368DR,4328,4709,11553,01.205,551
2023-04-08T04:15:25,42.805,6.029,CST-1368DR,4328,4710,11556,01.204,551
2023-04-08T04:18:26,42.805,6.029,CST-1368DR,4328,4715,11569,01.200,551
2023-04-08T04:21:28,42.805,6.029,CST-1368DR,4328,4710,11557,01.204,551
2023-04-08T04:24:30,42.805,6.029,CST-1368DR,4328,4712,11562,01.202,551
2023-04-08T04:27:31,42.805,6.029,CST-1368DR,4329,4711,11557,01.204,551
2023-04-08T04:30:33,42.805,6.029,CST-1368DR,4328,4711,11560,01.203,551
2023-04-08T04:33:34,42.805,6.029,CST-1368DR,4328,4711,11559,01.203,551
2023-04-08T04:36:36,42.805,6.029,CST-1368DR,4329,4709,11553,01.205,551
2023-04-08T04:39:37,42.805,6.029,CST-1368DR,4329,4713,11562,01.202,551
2023-04-08T04:42:39,42.805,6.029,CST-1368DR,4329,4708,11550,01.206,551
2023-04-08T04:45:41,42.805,6.029,CST-1368DR,4328,4708,11552,01.206,551
2023-04-08T04:48:42,42.805,6.029,CST-1368DR,4328,4711,11558,01.204,551
2023-04-08T04:51:44,42.805,6.029,CST-1368DR,4328,4710,11558,01.204,551
2023-04-08T04:54:45,42.805,6.029,CST-1368DR,4328,4715,11569,01.200,551
2023-04-08T04:57:47,42.805,6.029,CST-1368DR,4328,4714,11566,01.201,551
2023-04-08T05:00:48,42.805,6.029,CST-1368DR,4328,4712,11562,01.202,551
2023-04-08T05:03:50,42.805,6.029,CST-1368DR,4328,4710,11558,01.204,551
2023-04-08T05:06:52,42.805,6.029,CST-1368DR,4329,4714,11563,01.202,551
2023-04-08T05:09:53,42.805,6.029,CST-1368DR,4328,4714,11566,01.201,551
2023-04-08T05:12:55,42.805,6.029,CST-1368DR,4328,4712,11562,01.202,551
2023-04-08T05:15:56,42.805,6.029,CST-1368DR,4329,4712,11560,01.203,551
2023-04-08T05:18:58,42.805,6.029,CST-1368DR,4328,4712,11561,01.203,551
2023-04-08T05:22:00,42.805,6.029,CST-1368DR,4328,4711,11560,01.203,551
2023-04-08T05:25:01,42.805,6.029,CST-1368DR,4328,4713,11564,01.202,551
2023-04-08T05:28:03,42.805,6.029,CST-1368DR,4328,4712,11561,01.203,551
2023-04-08T05:31:04,42.805,6.029,CST-1368DR,4329,4710,11554,01.205,551
2023-04-08T05:34:06,42.805,6.029,CST-1368DR,4328,4715,11568,01.200,551
2023-04-08T05:37:07,42.805,6.029,CST-1368DR,4328,4713,11565,01.201,551
2023-04-08T05:40:09,42.805,6.029,CST-1368DR,4328,4714,11566,01.201,551
2023-04-08T05:43:11,42.805,6.029,CST-1368DR,4328,4712,11562,01.202,551
2023-04-08T05:46:12,42.805,6.029,CST-1368DR,4329,4714,11564,01.202,551
2023-04-08T05:49:14,42.805,6.029,CST-1368DR,4329,4710,11554,01.205,551
2023-04-08T05:52:15,42.805,6.029,CST-1368DR,4329,4710,11555,01.205,551
2023-04-08T05:55:17,42.805,6.029,CST-1368DR,4328,4709,11554,01.205,551
2023-04-08T05:58:18,42.805,6.029,CST-1368DR,4329,4712,11559,01.203,551
2023-04-08T06:01:20,42.805,6.029,CST-1368DR,4328,4711,11558,01.204,551
2023-04-08T06:04:22,42.805,6.029,CST-1368DR,4329,4711,11557,01.204,551
2023-04-08T06:07:23,42.805,6.029,CST-1368DR,4328,4713,11565,01.201,551
2023-04-08T06:10:25,42.805,6.029,CST-1368DR,4329,4710,11553,01.205,551
2023-04-08T06:13:26,42.805,6.029,CST-1368DR,4328,4711,11560,01.203,551
2023-04-08T06:16:28,42.805,6.029,CST-1368DR,4328,4713,11565,01.201,551
2023-04-08T06:19:30,42.805,6.029,CST-1368DR,4329,4710,11555,01.205,551
2023-04-08T06:22:31,42.805,6.029,CST-1368DR,4329,4712,11558,01.204,551
2023-04-08T06:25:33,42.805,6.029,CST-1368DR,4329,4710,11555,01.205,552
2023-04-08T06:28:34,42.805,6.029,CST-1368DR,4328,4709,11555,01.205,551
2023-04-08T06:31:37,42.805,6.029,CST-1368DR,4328,4712,11562,01.202,551
2023-04-08T06:34:39,42.805,6.029,CST-1368DR,4329,4714,11563,01.202,551
2023-04-08T06:37:40,42.805,6.029,CST-1368DR,4328,4713,11564,01.202,551
2023-04-08T06:40:42,42.805,6.029,CST-1368DR,4328,4709,11554,01.205,551
2023-04-08T06:43:43,42.805,6.029,CST-1368DR,4328,4710,11557,01.204,551
2023-04-08T06:46:45,42.805,6.029,CST-1368DR,4328,4709,11554,01.205,551
2023-04-08T06:49:46,42.805,6.029,CST-1368DR,4329,4712,11559,01.203,551
2023-04-08T06:52:48,42.805,6.029,CST-1368DR,4328,4709,11553,01.205,551
2023-04-08T06:55:50,42.805,6.029,CST-1368DR,4328,4712,11562,01.202,551
2023-04-08T06:58:51,42.805,6.029,CST-1368DR,4328,4711,11558,01.204,551
2023-04-08T07:01:53,42.805,6.029,CST-1368DR,4328,4706,11546,01.208,552
2023-04-08T07:04:54,42.805,6.029,CST-1368DR,4328,4708,11553,01.205,551
2023-04-08T07:07:56,42.805,6.029,CST-1368DR,4328,4712,11562,01.202,551
2023-04-08T07:10:58,42.805,6.029,CST-1368DR,4328,4710,11556,01.204,551
2023-04-08T07:13:59,42.805,6.029,CST-1368DR,4328,4707,11550,01.206,551
2023-04-08T07:17:01,42.805,6.029,CST-1368DR,4328,4711,11558,01.204,551
2023-04-08T07:20:02,42.805,6.029,CST-1368DR,4328,4712,11561,01.203,551
2023-04-08T07:23:04,42.805,6.029,CST-1368DR,4328,4709,11554,01.205,551
2023-04-08T07:26:05,42.805,6.029,CST-1368DR,4328,4705,11545,01.208,551
2023-04-08T07:29:07,42.805,6.029,CST-1368DR,4328,4707,11548,01.207,551
2023-04-08T07:32:09,42.805,6.029,CST-1368DR,4328,4707,11548,01.207,551
2023-04-08T07:35:10,42.805,6.029,CST-1368DR,4328,4706,11548,01.207,551
2023-04-08T07:38:12,42.805,6.029,CST-1368DR,4328,4708,11553,01.205,551
2023-04-08T07:41:13,42.805,6.029,CST-1368DR,4328,4702,11537,01.211,551
2023-04-08T07:44:15,42.805,6.029,CST-1368DR,4328,4704,11542,01.209,551
2023-04-08T07:47:16,42.805,6.029,CST-1368DR,4328,4712,11562,01.202,552
2023-04-08T07:50:18,42.805,6.029,CST-1368DR,4328,4711,11558,01.204,551
2023-04-08T07:53:20,42.805,6.029,CST-1368DR,4329,4719,11576,01.197,552
2023-04-08T07:56:21,42.805,6.029,CST-1368DR,4328,4707,11550,01.206,551
2023-04-08T07:59:23,42.805,6.029,CST-1368DR,4328,4710,11557,01.204,551
2023-04-08T08:02:24,42.805,6.029,CST-1368DR,4328,4711,11559,01.203,551
2023-04-08T08:05:26,42.805,6.029,CST-1368DR,4328,4707,11549,01.207,551
2023-04-08T08:08:28,42.805,6.029,CST-1368DR,4328,4711,11558,01.204,551
2023-04-08T08:11:29,42.805,6.029,CST-1368DR,4328,4712,11562,01.202,551
2023-04-08T08:14:31,42.805,6.029,CST-1368DR,4328,4711,11559,01.203,551
2023-04-08T08:17:32,42.805,6.029,CST-1368DR,4329,4713,11561,01.203,551
2023-04-08T08:20:34,42.805,6.029,CST-1368DR,4328,4713,11564,01.202,551
2023-04-08T08:23:35,42.805,6.029,CST-1368DR,4328,4714,11567,01.201,551
2023-04-08T08:26:37,42.805,6.029,CST-1368DR,4328,4722,11585,01.194,551
2023-04-08T08:29:39,42.805,6.029,CST-1368DR,4328,4714,11566,01.201,551
2023-04-08T08:32:40,42.805,6.029,CST-1368DR,4328,4714,11566,01.201,551
2023-04-08T08:35:42,42.805,6.029,CST-1368DR,4328,4713,11564,01.202,551
2023-04-08T08:38:43,42.805,6.029,CST-1368DR,4328,4713,11564,01.202,551
2023-04-08T08:41:45,42.805,6.029,CST-1368DR,4328,4712,11562,01.202,551
2023-04-08T08:44:46,42.805,6.029,CST-1368DR,4328,4712,11561,01.203,551
2023-04-08T08:47:48,42.805,6.029,CST-1368DR,4328,4712,11562,01.202,551
2023-04-08T08:50:50,42.805,6.029,CST-1368DR,4328,4714,11567,01.201,551
2023-04-08T08:53:51,42.805,6.029,CST-1368DR,4328,4713,11564,01.202,551
2023-04-08T08:56:53,42.805,6.029,CST-1368DR,4328,4717,11575,01.198,551
2023-04-08T08:59:54,42.805,6.029,CST-1368DR,4328,4716,11570,01.200,551
2023-04-08T09:02:56,42.805,6.029,CST-1368DR,4328,4716,11572,01.199,551
2023-04-08T09:05:57,42.805,6.029,CST-1368DR,4328,4716,11572,01.199,551
2023-04-08T09:08:59,42.805,6.029,CST-1368DR,4328,4720,11580,01.196,551
2023-04-08T09:12:01,42.805,6.029,CST-1368DR,4328,4722,11585,01.194,551
2023-04-08T09:15:02,42.805,6.029,CST-1368DR,4328,4716,11572,01.199,551
2023-04-08T09:18:04,42.805,6.029,CST-1368DR,4328,4716,11571,01.199,551
2023-04-08T09:21:05,42.805,6.029,CST-1368DR,4328,4725,11594,01.191,551
2023-04-08T09:24:07,42.805,6.029,CST-1368DR,4328,4725,11594,01.191,551
2023-04-08T09:27:09,42.805,6.029,CST-1368DR,4328,4725,11593,01.192,551
2023-04-08T09:30:10,42.805,6.029,CST-1368DR,4328,4721,11585,01.194,551
2023-04-08T09:33:12,42.805,6.029,CST-1368DR,4328,4721,11583,01.195,551
2023-04-08T09:36:13,42.805,6.029,CST-1368DR,4328,4720,11582,01.195,551
2023-04-08T09:39:15,42.805,6.029,CST-1368DR,4328,4724,11591,01.192,551
2023-04-08T09:42:16,42.805,6.029,CST-1368DR,4328,4723,11589,01.193,551
2023-04-08T09:45:18,42.805,6.029,CST-1368DR,4328,4725,11594,01.191,551
2023-04-08T09:48:20,42.805,6.029,CST-1368DR,4328,4722,11586,01.194,551
2023-04-08T09:51:21,42.805,6.029,CST-1368DR,4328,4721,11585,01.194,551
2023-04-08T09:54:23,42.805,6.029,CST-1368DR,4328,4722,11587,01.194,551
2023-04-08T09:57:24,42.805,6.029,CST-1368DR,4328,4718,11577,01.197,551
2023-04-08T10:00:26,42.805,6.029,CST-1368DR,4328,4719,11578,01.197,551
2023-04-08T10:03:27,42.805,6.029,CST-1368DR,4328,4721,11583,01.195,551
2023-04-08T10:06:29,42.805,6.029,CST-1368DR,4328,4719,11578,01.197,551
2023-04-08T10:09:31,42.805,6.029,CST-1368DR,4328,4720,11580,01.196,551
2023-04-08T10:12:32,42.805,6.029,CST-1368DR,4328,4719,11578,01.197,551
2023-04-08T10:15:34,42.805,6.029,CST-1368DR,4328,4716,11571,01.199,551
2023-04-08T10:18:35,42.805,6.029,CST-1368DR,4328,4719,11578,01.197,551
2023-04-08T10:21:37,42.805,6.029,CST-1368DR,4328,4719,11578,01.197,551
2023-04-08T10:24:39,42.805,6.029,CST-1368DR,4328,4717,11575,01.198,551
2023-04-08T10:27:40,42.805,6.029,CST-1368DR,4328,4718,11576,01.197,551
2023-04-08T10:30:42,42.805,6.029,CST-1368DR,4328,4713,11564,01.202,551
2023-04-08T10:33:43,42.805,6.029,CST-1368DR,4328,4717,11575,01.198,551
2023-04-08T10:36:45,42.805,6.029,CST-1368DR,4328,4707,11550,01.206,551
2023-04-08T10:39:46,42.805,6.029,CST-1368DR,4328,4727,11599,01.190,551
2023-04-08T10:42:48,42.805,6.029,CST-1368DR,4329,4721,11580,01.196,551
2023-04-08T10:45:50,42.805,6.029,CST-1368DR,4328,4721,11583,01.195,552
2023-04-08T10:48:51,42.805,6.029,CST-1368DR,4328,4717,11575,01.198,551
2023-04-08T10:51:53,42.805,6.029,CST-1368DR,4328,4715,11569,01.200,551
2023-04-08T10:54:54,42.805,6.029,CST-1368DR,4328,4719,11580,01.196,551
2023-04-08T10:57:56,42.805,6.029,CST-1368DR,4328,4719,11579,01.196,551
2023-04-08T11:00:57,42.805,6.029,CST-1368DR,4328,4719,11579,01.196,551
2023-04-08T11:03:59,42.805,6.029,CST-1368DR,4328,4720,11582,01.195,551
2023-04-08T11:07:01,42.805,6.029,CST-1368DR,4328,4719,11578,01.197,551
2023-04-08T11:10:02,42.805,6.029,CST-1368DR,4328,4719,11578,01.197,551
2023-04-08T11:13:04,42.805,6.029,CST-1368DR,4328,4717,11574,01.198,551
2023-04-08T11:16:05,42.805,6.029,CST-1368DR,4328,4717,11573,01.198,551
2023-04-08T11:19:07,42.805,6.029,CST-1368DR,4328,4715,11569,01.200,551
2023-04-08T11:22:09,42.805,6.029,CST-1368DR,4328,4715,11569,01.200,551
2023-04-08T11:25:10,42.805,6.029,CST-1368DR,4328,4720,11580,01.196,551
2023-04-08T11:28:12,42.805,6.029,CST-1368DR,4328,4715,11570,01.200,551
2023-04-08T11:31:13,42.805,6.029,CST-1368DR,4328,4718,11576,01.197,551
2023-04-08T11:34:15,42.805,6.029,CST-1368DR,4328,4718,11576,01.197,551
2023-04-08T11:37:16,42.805,6.029,CST-1368DR,4328,4717,11573,01.198,551
2023-04-08T11:40:18,42.805,6.029,CST-1368DR,4328,4717,11573,01.198,551
2023-04-08T11:43:20,42.805,6.029,CST-1368DR,4328,4717,11574,01.198,551
2023-04-08T11:46:21,42.805,6.029,CST-1368DR,4328,4722,11586,01.194,551
2023-04-08T11:49:23,42.805,6.029,CST-1368DR,4328,4719,11578,01.197,551
2023-04-08T11:52:24,42.805,6.029,CST-1368DR,4328,4718,11577,01.197,551
2023-04-08T11:55:26,42.805,6.029,CST-1368DR,4328,4719,11578,01.197,551
2023-04-08T11:58:27,42.805,6.029,CST-1368DR,4328,4718,11577,01.197,551
2023-04-08T12:01:29,42.805,6.029,CST-1368DR,4328,4717,11573,01.198,551
2023-04-08T12:04:31,42.805,6.029,CST-1368DR,4328,4714,11566,01.201,551
2023-04-08T12:07:32,42.805,6.029,CST-1368DR,4328,4717,11573,01.198,551
2023-04-08T12:10:34,42.805,6.029,CST-1368DR,4328,4715,11569,01.200,551
2023-04-08T12:13:35,42.805,6.029,CST-1368DR,4328,4717,11574,01.198,551
2023-04-08T12:16:37,42.805,6.029,CST-1368DR,4328,4716,11572,01.199,551
2023-04-08T12:19:39,42.805,6.029,CST-1368DR,4328,4716,11571,01.199,551
2023-04-08T12:22:40,42.805,6.029,CST-1368DR,4328,4713,11563,01.202,551
2023-04-08T12:25:42,42.805,6.029,CST-1368DR,4328,4716,11572,01.199,551
2023-04-08T12:28:43,42.805,6.029,CST-1368DR,4328,4715,11569,01.200,551
2023-04-08T12:31:45,42.805,6.029,CST-1368DR,4328,4716,11572,01.199,551
2023-04-08T12:34:46,42.805,6.029,CST-1368DR,4328,4716,11570,01.200,551
2023-04-08T12:37:48,42.805,6.029,CST-1368DR,4328,4715,11568,01.200,551
2023-04-08T12:40:50,42.805,6.029,CST-1368DR,4328,4703,11540,01.210,551
2023-04-08T12:43:51,42.805,6.029,CST-1368DR,4328,4713,11565,01.201,551
2023-04-08T12:46:53,42.805,6.029,CST-1368DR,4328,4715,11568,01.200,551
2023-04-08T12:49:54,42.805,6.029,CST-1368DR,4328,4712,11561,01.203,551
2023-04-08T12:52:56,42.805,6.029,CST-1368DR,4328,4714,11566,01.201,552
2023-04-08T12:55:57,42.805,6.029,CST-1368DR,4328,4712,11561,01.203,551
2023-04-08T12:58:59,42.805,6.029,CST-1368DR,4328,4712,11562,01.202,551
2023-04-08T13:02:01,42.805,6.029,CST-1368DR,4328,4711,11560,01.203,551
2023-04-08T13:05:02,42.805,6.029,CST-1368DR,4328,4713,11563,01.202,551
2023-04-08T13:08:04,42.805,6.029,CST-1368DR,4328,4711,11559,01.203,551
2023-04-08T13:11:05,42.805,6.029,CST-1368DR,4328,4710,11556,01.204,551
2023-04-08T13:14:07,42.805,6.029,CST-1368DR,4328,4712,11561,01.203,551
2023-04-08T13:17:09,42.805,6.029,CST-1368DR,4328,4711,11560,01.203,551
2023-04-08T13:20:10,42.805,6.029,CST-1368DR,4328,4712,11562,01.202,551
2023-04-08T13:23:12,42.805,6.029,CST-1368DR,4328,4711,11560,01.203,551
2023-04-08T13:26:13,42.805,6.029,CST-1368DR,4328,4712,11562,01.202,551
2023-04-08T13:29:15,42.805,6.029,CST-1368DR,4328,4692,11513,01.219,551
2023-04-08T13:32:16,42.805,6.029,CST-1368DR,4328,4713,11563,01.202,551
2023-04-08T13:35:18,42.805,6.029,CST-1368DR,4328,4714,11566,01.201,551
2023-04-08T13:38:20,42.805,6.029,CST-1368DR,4328,4713,11564,01.202,551
2023-04-08T13:41:21,42.805,6.029,CST-1368DR,4328,4712,11561,01.203,551
2023-04-08T13:44:23,42.805,6.029,CST-1368DR,4328,4712,11562,01.202,551
2023-04-08T13:47:24,42.805,6.029,CST-1368DR,4328,4713,11563,01.202,551
2023-04-08T13:50:26,42.805,6.029,CST-1368DR,4328,4714,11566,01.201,551
2023-04-08T13:53:27,42.805,6.029,CST-1368DR,4328,4713,11563,01.202,551
2023-04-08T13:56:29,42.805,6.029,CST-1368DR,4328,4714,11566,01.201,551
2023-04-08T13:59:31,42.805,6.029,CST-1368DR,4328,4712,11562,01.202,551
2023-04-08T14:02:32,42.805,6.029,CST-1368DR,4328,4712,11562,01.202,551
2023-04-08T14:05:34,42.805,6.029,CST-1368DR,4328,4707,11549,01.207,551
2023-04-08T14:08:35,42.805,6.029,CST-1368DR,4328,4711,11559,01.203,551
2023-04-08T14:11:37,42.805,6.029,CST-1368DR,4328,4711,11560,01.203,552
2023-04-08T14:14:39,42.805,6.029,CST-1368DR,4328,4708,11551,01.206,551
2023-04-08T14:17:40,42.805,6.029,CST-1368DR,4328,4713,11564,01.202,551
2023-04-08T14:20:42,42.805,6.029,CST-1368DR,4328,4714,11567,01.201,551
2023-04-08T14:23:43,42.805,6.029,CST-1368DR,4328,4714,11566,01.201,551
2023-04-08T14:26:45,42.805,6.029,CST-1368DR,4328,4712,11561,01.203,551
2023-04-08T14:29:46,42.805,6.029,CST-1368DR,4328,4712,11562,01.202,551
2023-04-08T14:32:48,42.805,6.029,CST-1368DR,4328,4713,11565,01.201,551
2023-04-08T14:35:50,42.805,6.029,CST-1368DR,4328,4713,11564,01.202,551
2023-04-08T14:38:51,42.805,6.029,CST-1368DR,4328,4712,11562,01.202,551
2023-04-08T14:41:53,42.805,6.029,CST-1368DR,4328,4714,11567,01.201,551
2023-04-08T14:44:54,42.805,6.029,CST-1368DR,4328,4713,11565,01.201,551
2023-04-08T14:47:56,42.805,6.029,CST-1368DR,4328,4714,11566,01.201,551
2023-04-08T14:50:57,42.805,6.029,CST-1368DR,4328,4713,11565,01.201,551
2023-04-08T14:53:59,42.805,6.029,CST-1368DR,4328,4715,11570,01.200,551
2023-04-08T14:57:01,42.805,6.029,CST-1368DR,4328,4714,11566,01.201,551
2023-04-08T15:00:02,42.805,6.029,CST-1368DR,4328,4714,11566,01.201,552
2023-04-08T15:03:04,42.805,6.029,CST-1368DR,4328,4716,11570,01.200,551
2023-04-08T15:06:05,42.805,6.029,CST-1368DR,4328,4715,11569,01.200,551
2023-04-08T15:09:07,42.805,6.029,CST-1368DR,4328,4715,11569,01.200,551
2023-04-08T15:12:08,42.805,6.029,CST-1368DR,4328,4716,11570,01.200,551
2023-04-08T15:15:10,42.805,6.029,CST-1368DR,4328,4699,11529,01.214,551
2023-04-08T15:18:12,42.805,6.029,CST-1368DR,4328,4718,11576,01.197,551
2023-04-08T15:21:13,42.805,6.029,CST-1368DR,4328,4716,11572,01.199,551
2023-04-08T15:24:15,42.805,6.029,CST-1368DR,4328,4716,11571,01.199,551
2023-04-08T15:27:16,42.805,6.029,CST-1368DR,4328,4715,11568,01.200,551
2023-04-08T15:30:18,42.805,6.029,CST-1368DR,4328,4715,11568,01.200,551
2023-04-08T15:33:20,42.805,6.029,CST-1368DR,4328,4716,11572,01.199,551
2023-04-08T15:36:21,42.805,6.029,CST-1368DR,4328,4716,11572,01.199,551
2023-04-08T15:39:23,42.805,6.029,CST-1368DR,4328,4715,11570,01.200,551
2023-04-08T15:42:24,42.805,6.029,CST-1368DR,4328,4717,11573,01.198,551
2023-04-08T15:45:26,42.805,6.029,CST-1368DR,4328,4715,11569,01.200,551
2023-04-08T15:48:27,42.805,6.029,CST-1368DR,4328,4711,11558,01.204,551
2023-04-08T15:51:29,42.805,6.029,CST-1368DR,4328,4714,11567,01.201,551
2023-04-08T15:54:31,42.805,6.029,CST-1368DR,4328,4711,11558,01.204,551
2023-04-08T15:57:32,42.805,6.029,CST-1368DR,4328,4712,11561,01.203,551
2023-04-08T16:00:34,42.805,6.029,CST-1368DR,4328,4714,11567,01.201,551
2023-04-08T16:03:35,42.805,6.029,CST-1368DR,4328,4715,11569,01.200,551
2023-04-08T16:06:37,42.805,6.029,CST-1368DR,4328,4713,11563,01.202,551
2023-04-08T16:09:38,42.805,6.029,CST-1368DR,4328,4704,11542,01.209,551
2023-04-08T16:12:40,42.805,6.029,CST-1368DR,4328,4713,11564,01.202,551
2023-04-08T16:15:42,42.805,6.029,CST-1368DR,4328,4714,11567,01.201,551
2023-04-08T16:18:43,42.805,6.029,CST-1368DR,4328,4714,11566,01.201,551
2023-04-08T16:21:45,42.805,6.029,CST-1368DR,4328,4714,11567,01.201,551
2023-04-08T16:24:46,42.805,6.029,CST-1368DR,4328,4715,11569,01.200,551
2023-04-08T16:27:48,42.805,6.029,CST-1368DR,4328,4715,11568,01.200,551
2023-04-08T16:30:49,42.805,6.029,CST-1368DR,4328,4715,11569,01.200,551
2023-04-08T16:33:51,42.805,6.029,CST-1368DR,4328,4714,11566,01.201,551
2023-04-08T16:36:52,42.805,6.029,CST-1368DR,4328,4713,11564,01.202,551